Regional Weather Roundup
Issued by NWS Boston, MA

Current Version | Previous Version | Text Only | Print | Product List | Glossary Off
Versions: 1 2 3 4 5 6 7 8 9 10 11 12 13 14 15 16 17 18 19 20 21 22 23 24 25 26 27 28 29 30 31 32 33 34 35 36 37 38 39 40 41 42 43 44 45 46 47 48 49 50
595 ASUS41 KBOX 231110 RWRBOX REGIONAL WEATHER ROUNDUP NATIONAL WEATHER SERVICE TAUNTON MA 700 AM EDT TUE MAY 23 2017 NOTE: "FAIR" INDICATES FEW OR NO CLOUDS BELOW 12,000 FEET WITH NO SIGNIFICANT WEATHER AND/OR OBSTRUCTIONS TO VISIBILITY. MAZALL-231200- EASTERN MASSACHUSETTS CITY SKY/WX TMP DP RH WIND PRES REMARKS BOSTON CLOUDY 53 52 96 W5 29.95R BEVERLY CLOUDY 53 52 96 NW7 29.93R LAWRENCE CLOUDY 53 51 93 W5 29.96R BEDFORD N/A 52 49 89 NW6 29.94R BLUE HILL N/A 51 50 96 NW7 29.93R NORWOOD CLOUDY 54 53 97 VRB3 29.94R MARSHFIELD CLOUDY 54 54 100 CALM 29.93R PLYMOUTH CLOUDY 55 52 89 N6 29.93R TAUNTON CLOUDY 54 52 93 VRB5 29.93R NEW BEDFORD PTSUNNY 55 54 96 CALM 29.92R $$ MAZALL-231200- CAPE COD AND THE ISLANDS CITY SKY/WX TMP DP RH WIND PRES REMARKS FALMOUTH N/A N/A N/A N/A MISG N/A HYANNIS CLOUDY 54 54 100 N7 29.92R CHATHAM CLOUDY 56 56 100 N6 29.93R PROVINCETOWN CLOUDY 53 52 96 NW9 29.94R NANTUCKET CLOUDY 56 54 93 N15 29.90S FOG MARTHAS VNYRD CLOUDY 58 56 93 N12 29.90F $$ MAZALL-231200- CENTRAL AND WESTERN MASSACHUSETTS CITY SKY/WX TMP DP RH WIND PRES REMARKS WORCESTER CLOUDY 51 47 86 NW8 29.95R FITCHBURG SUNNY 53 51 93 CALM 29.96R ORANGE CLOUDY 50 49 96 CALM 29.96R SPRINGFIELD CLOUDY 51 50 99 N3 29.94F FOG WESTFIELD CLOUDY 49 49 100 CALM 29.95R NORTH ADAMS CLOUDY 48 47 96 CALM 29.97R PITTSFIELD CLOUDY 50 44 80 NW7 29.95R $$ RIZALL-231200- RHODE ISLAND CITY SKY/WX TMP DP RH WIND PRES REMARKS PROVIDENCE CLOUDY 55 54 96 N8 29.93S NEWPORT CLOUDY 55 55 100 N8 29.92S BLOCK ISLAND CLOUDY 55 55 100 N6 29.93S WESTERLY CLOUDY 57 54 89 N5 29.93F $$ CTZALL-231200- CONNECTICUT CITY SKY/WX TMP DP RH WIND PRES REMARKS BRADLEY INTL CLOUDY 51 51 100 N6 29.96S FOG HARTFORD CLOUDY 52 52 100 NE5 29.95F BRIDGEPORT MOSUNNY 58 50 75 NW3 29.95R DANBURY PTSUNNY 51 51 100 CALM 29.97R GROTON MOSUNNY 57 53 86 N6 29.93S NEW HAVEN PTSUNNY 55 52 89 CALM 29.94S CHESTER FAIR 54 54 100 VRB8 29.94R MERIDEN CLOUDY 53 50 89 N5 29.95S WILLIMANTIC PTSUNNY 56 53 90 N3 29.95R OXFORD PTSUNNY 52 43 71 N7 29.97S $$ MEZ002-015-021-024-NHZ003-005-008-011-012-014-VTZ005-008-231200- NORTHERN NEW ENGLAND CITY SKY/WX TMP DP RH WIND PRES REMARKS PORTLAND ME CLOUDY 50 48 93 NW5 29.93S BANGOR ME CLOUDY 47 47 100 SW6 29.93S FOG CONCORD NH CLOUDY 50 48 93 VRB3 29.94R MANCHESTER NH CLOUDY 51 48 89 CALM 29.93R NASHUA NH CLOUDY 51 50 96 W3 29.95R PORTSMOUTH NH CLOUDY 51 49 95 NW5 29.92R JAFFREY NH SUNNY 50 50 100 CALM 29.95R KEENE NH CLOUDY 50 49 96 CALM 29.96R BURLINGTON VT PTSUNNY 52 49 89 SW6 29.94R MT. WASHINGTON FOG 30 30 100 NW36 N/A VSB 1/16WCI 14 $$ NYZ052-076-231200- EASTERN NEW YORK CITY SKY/WX TMP DP RH WIND PRES REMARKS ALBANY CLOUDY 51 47 86 NW5 29.98R NEW YORK CITY CLOUDY 60 53 77 NE9 29.96R $$ ANZALL-231200- MARINE OBSERVATIONS STATION/POSITION TIME TEMP WIND PRES VSBY WAVE AIR SEA DIR/SP/G HT/PER (UTC) (F) (DEG/KT/KT) (MB) (MI) (FT/S) BOSTON BUOY 0950 53 53 330/ 8/ 8 1012.4 2/ 5 BUZZARDS BAY 1000 56 360/ 9/ 9 1013.2R NANTUCKET SOUND 1050 54 1012.7R 1/ 5 MASS BAY-STELLWA 1004 53 53 330/ 6/ 8 1012.5R 1/ 5 ISLE OF SHOALS 1000 50 300/ 6/ 7 1013.0S S OF BLOCK IS 1055 53 N/A 3/ 5 $$ ......................KEY......................... SKY/WX - SKY CONDITION/PRESENT WEATHER TMP - TEMPERATURE IN FAHRENHEIT DWPT - DEWPOINT IN FAHRENHEIT RH - RELATIVE HUMIDITY IN PERCENT WIND - DIRECTION AND SPEED IN MPH PRES - MEAN SEA LEVEL PRESSURE IN INCHES OF HG WCI - WIND CHILL INDEX VSB - VISIBILITY IN MILES HX - HEAT INDEX TC - TEMPERATURE IN CELSIUS VRB - VARIABLE WIND DIRECTION N/A - NOT AVAILABLE

USA.gov is the U.S. government's official web portal to all federal, state and local government web resources and services.